Погода в Кисангани

Демократическая Республика Конго     0°32′04″N   25°11′13″E
темп.,
°C
ветер,
м/с
пор.,
м/с
влажн.,
%
обл.,
%
осадки,
мм/ч
давл.,
гПа
погр.,
м
19 мая, ср
ср1901:00+22зюз009399 0.0 101216
04:00+21сз119590 0.0 101216
07:00+23ссз1187100 0.0 1013137
10:00+28з126492 0.0 1013742
13:00+28з016963 1.4 1011683
16:00+27с257470 0.9 1010399
19:00+22юв1199100 4.6 101317
22:00+21юв1199100 0.1 101243
20 мая, чт
чт2001:00+21юв1199100 0.1 101118
04:00+21вюв1199100 0.0 101242
07:00+22вюв129694 0.0 1014131
10:00+30ююв225693 0.0 10131055
13:00+32ююв2248100 0.0 10101811
16:00+28ююв1171100 0.0 100948
19:00+24ю117865 0.0 101025
22:00+21юз119681 0.8 101311
21 мая, пт
пт2101:00+21юз1398100 0.8 101169
04:00+21ссв1199100 0.0 101229
07:00+23всв119392 0.0 1014203
10:00+31юв115671 0.0 10131125
13:00+33вюв0146100 0.0 10091806
16:00+25юв258799 0.9 1009167
19:00+22всв119666 2.4 101012
22:00+22ююв1198100 0.6 101217
22 мая, сб
сб2201:00+21юв1198100 0.6 101122
04:00+21всв1199100 0.0 101115
07:00+23вюв1194100 0.0 1014134
10:00+30юв125566 0.0 1012780
13:00+31ююв225055 0.0 1009918
16:00+30ююв24575 0.0 1008260
19:00+24ююв23808 0.1 100961
22:00+21зсз0198100 5.3 101114
23 мая, вс
вс2301:00+21сз1199100 8.3 101125
04:00+20ю119980 1.7 101140
07:00+22юв1295100 2.4 1013169
10:00+31ююв115799 0.0 1012880
13:00+30ююв236091 0.0 1009653
16:00+30юз136199 0.0 1008317
19:00+24зюз128580 0.1 101041
22:00+23юз158877 0.1 1012114